WXM80 ListenWXM80 Stop

You find our weather info also at:

UK Metoffice

WeatherCloud

Weather Underground

Northeastern Weather Network

AWEKAS

Citizen Weather Observer Program (CWOP)

HAMweather, WeatherForYou, PWS Weather


Weather Underground History page Text

Daily Summary for May 25, 2018 Units:  English    Metric   Both
« Previous Day
Next Day »
Daily Weekly Monthly Yearly Custom
  Current: High: Low: Average:
Temperature: 64.0 °F 65.0 °F 64.0 °F 64.4 °F
Dew Point: 49.4 °F 49.5 °F 47.4 °F 48.8 °F
Humidity: 59 % 59 % 53 % 57 %
Wind Speed: 0.0 mph 3.9 mph 0.0 mph 1.2 mph
Wind Gust: 0.0 mph 10.4 mph - -
Wind:Calm - - SW
Pressure: 26.58 in 26.58 in 26.58 in -
Precipitation: 0.00 in      
Historical Graphs
 
 
Tabular Data for May 25, 2018
Time Temperature Dew Point Pressure Wind Wind Speed Wind Gust Humidity Rainfall Rate (Hourly)
00:02 65.0 °F 47.4 °F 26.58 in WSW 1.1 mph 3.5 mph 53 % 0.00 in
00:08 65.0 °F 47.9 °F 26.58 in SW 1.8 mph 3.5 mph 54 % 0.00 in
00:13 64.9 °F 48.3 °F 26.58 in SSW 2.7 mph 4.6 mph 55 % 0.00 in
00:18 64.9 °F 48.3 °F 26.58 in SSW 2.1 mph 3.5 mph 55 % 0.00 in
00:23 64.8 °F 48.2 °F 26.58 in SSW 2.4 mph 6.9 mph 55 % 0.00 in
00:28 64.8 °F 48.7 °F 26.58 in SSW 3.0 mph 4.6 mph 56 % 0.00 in
00:33 64.7 °F 48.6 °F 26.58 in SSW 1.4 mph 3.5 mph 56 % 0.00 in
00:38 64.6 °F 48.5 °F 26.58 in SSW 1.8 mph 6.0 mph 56 % 0.00 in
00:43 64.5 °F 48.9 °F 26.58 in SSW 1.9 mph 5.0 mph 57 % 0.00 in
00:48 64.5 °F 48.9 °F 26.58 in SSW 1.9 mph 4.0 mph 57 % 0.00 in
00:53 64.4 °F 48.8 °F 26.58 in SSW 3.9 mph 6.9 mph 57 % 0.00 in
00:58 64.4 °F 48.8 °F 26.58 in SW 1.4 mph 3.5 mph 57 % 0.00 in
01:03 64.3 °F 49.2 °F 26.58 in SSW 1.9 mph 3.5 mph 58 % 0.00 in
01:08 64.3 °F 48.7 °F 26.58 in SW 0.9 mph 3.5 mph 57 % 0.00 in
01:13 64.3 °F 48.7 °F 26.58 in SW 1.9 mph 6.9 mph 57 % 0.00 in
01:18 64.3 °F 48.7 °F 26.58 in WSW 2.9 mph 5.0 mph 57 % 0.00 in
01:23 64.3 °F 48.7 °F 26.58 in WSW 2.8 mph 10.4 mph 57 % 0.00 in
01:28 64.3 °F 48.7 °F 26.58 in SSW 0.7 mph 4.6 mph 57 % 0.00 in
01:33 64.3 °F 48.7 °F 26.58 in WSW 2.1 mph 3.5 mph 57 % 0.00 in
01:38 64.4 °F 48.8 °F 26.58 in SSW 0.9 mph 2.3 mph 57 % 0.00 in
01:43 64.4 °F 48.8 °F 26.58 in WSW 0.8 mph 2.3 mph 57 % 0.00 in
01:48 64.4 °F 48.8 °F 26.58 in SW 0.5 mph 3.5 mph 57 % 0.00 in
01:53 64.4 °F 48.8 °F 26.58 in SSW 1.0 mph 4.6 mph 57 % 0.00 in
01:58 64.4 °F 48.4 °F 26.58 in SW 0.4 mph 4.6 mph 56 % 0.00 in
02:03 64.4 °F 48.8 °F 26.58 in SW 0.3 mph 3.5 mph 57 % 0.00 in
02:08 64.4 °F 48.8 °F 26.58 in WSW 0.3 mph 3.5 mph 57 % 0.00 in
02:13 64.4 °F 48.8 °F 26.58 in Calm     57 % 0.00 in
02:19 64.3 °F 48.7 °F 26.58 in SW 0.2 mph 1.2 mph 57 % 0.00 in
02:24 64.3 °F 48.7 °F 26.58 in SW 0.1 mph 2.3 mph 57 % 0.00 in
02:29 64.3 °F 49.2 °F 26.58 in SSW 1.4 mph 3.5 mph 58 % 0.00 in
02:34 64.3 °F 49.2 °F 26.58 in SW 0.5 mph 3.5 mph 58 % 0.00 in
02:39 64.2 °F 49.1 °F 26.58 in SSW 0.3 mph 1.2 mph 58 % 0.00 in
02:44 64.2 °F 49.1 °F 26.58 in SW 0.8 mph 4.6 mph 58 % 0.00 in
02:49 64.1 °F 49.5 °F 26.58 in SW 0.4 mph 2.3 mph 59 % 0.00 in
02:54 64.1 °F 49.5 °F 26.58 in SW 0.6 mph 2.3 mph 59 % 0.00 in
02:59 64.1 °F 49.5 °F 26.58 in Calm   1.2 mph 59 % 0.00 in
03:04 64.1 °F 49.5 °F 26.58 in Calm     59 % 0.00 in
03:09 64.0 °F 49.4 °F 26.58 in Calm     59 % 0.00 in
Crab Meadow Weather
Compliments of Weather Underground - 1.5 mb

Script developed by  Jim McMurry - jmcmurry@mwt.net Adapted for the template by  Wim van der Kuil - Leuven-Template.eu

Astronomy: One day on Jupiter is only 9 hours and 55 minutes.